EDT,Max TemperatureF,Mean TemperatureF,Min TemperatureF,Max Dew PointF,MeanDew PointF,Min DewpointF,Max Humidity, Mean Humidity, Min Humidity, Max Sea Level PressureIn, Mean Sea Level PressureIn, Min Sea Level PressureIn, Max VisibilityMiles, Mean VisibilityMiles, Min VisibilityMiles, Max Wind SpeedMPH, Mean Wind SpeedMPH, Max Gust SpeedMPH,PrecipitationIn, CloudCover, Events, WindDirDegrees
2013-3-1,37,34,30,34,30,21,96,83,66,30.08,30.00,29.95,10,8,3,10,6,17,0.01,8,,358
2013-3-2,30,28,27,23,20,18,81,70,64,30.12,30.09,30.06,10,10,6,12,7,,0.00,8,Snow,344
2013-3-3,32,26,19,23,20,15,86,73,56,30.13,30.10,30.07,10,7,2,13,4,,0.00,7,Snow,318
2013-3-4,43,28,12,29,18,10,89,65,34,30.21,30.13,30.05,10,9,5,7,2,,0.00,3,Rain,106
2013-3-5,39,36,32,36,33,26,100,91,65,30.03,29.71,29.61,10,4,1,14,8,18,0.60,8,Rain-Snow,66
2013-3-6,33,30,28,30,27,25,100,88,75,30.29,29.95,29.65,10,5,1,17,10,24,0.18,8,Snow,309
2013-3-7,37,34,30,30,28,25,88,79,67,30.42,30.36,30.28,10,8,5,8,4,,0.00,8,,290
2013-3-8,43,32,21,25,23,18,96,70,45,30.51,30.46,30.42,10,9,7,9,2,,0.00,0,,66
2013-3-9,57,41,25,36,29,22,92,63,35,30.41,30.25,30.06,10,10,7,9,3,,0.00,2,Rain,109
2013-3-10,70,59,48,44,34,31,62,40,24,30.05,29.96,29.84,10,10,8,14,5,29,0.06,2,Rain,167
2013-3-11,55,48,39,52,43,32,94,82,62,29.88,29.75,29.62,10,8,1,20,9,29,0.86,8,Rain,227
2013-3-12,46,40,35,31,28,26,82,68,49,30.08,29.99,29.90,10,10,5,14,9,26,0.00,8,Snow,257
2013-3-13,36,32,27,30,23,18,89,74,57,30.35,30.17,30.03,10,6,1,20,10,37,0.01,7,Snow,282
2013-3-14,45,32,19,28,20,16,89,64,34,30.40,30.32,30.20,10,10,10,9,4,,0.00,1,,254
2013-3-15,53,40,26,39,31,24,100,75,50,30.21,30.01,29.81,10,8,2,8,2,,0.00,2,Snow,235
2013-3-16,59,48,37,50,42,32,100,83,64,30.06,29.78,29.62,10,7,2,17,5,22,0.30,6,Rain-Thunderstorm,350
2013-3-17,37,36,34,32,29,26,82,75,67,30.18,30.11,30.04,10,10,7,14,9,,0.01,8,Rain,63
2013-3-18,51,42,33,46,37,30,100,91,73,30.01,29.77,29.62,10,6,2,13,8,28,1.10,8,Rain-Thunderstorm,118
2013-3-19,45,36,28,33,22,15,83,56,32,30.14,30.01,29.86,10,10,10,21,11,36,0.00,1,,260
2013-3-20,37,29,21,23,16,10,85,58,39,30.13,30.06,30.00,10,10,10,23,7,26,0.00,3,,277
2013-3-21,33,26,21,16,13,10,72,57,44,30.07,30.04,29.99,10,10,10,12,8,20,0.00,6,,296
2013-3-22,46,32,18,20,17,14,88,60,30,30.12,30.07,30.02,10,10,9,9,1,,0.00,0,,301
2013-3-23,52,39,27,25,22,19,75,53,32,30.10,30.04,29.92,10,10,10,9,2,,0.00,3,,31
2013-3-24,37,34,32,32,30,24,96,84,57,29.91,29.59,29.43,10,4,0,16,8,23,0.39,7,Fog-Rain-Snow,62
2013-3-25,35,32,30,32,30,27,96,89,81,29.98,29.64,29.44,10,3,1,15,7,21,0.05,8,Snow,300
2013-3-26,44,38,32,31,28,24,89,76,55,30.27,30.11,29.98,10,9,4,17,9,23,0.00,8,Snow,298
2013-3-27,46,36,27,28,25,22,88,65,45,30.34,30.31,30.26,10,10,7,15,7,18,0.00,3,,281
2013-3-28,52,36,21,31,24,18,88,65,36,30.40,30.35,30.32,10,10,10,9,2,,0.00,0,,287
2013-3-29,55,40,25,33,28,22,89,62,34,30.37,30.30,30.23,10,9,2,7,1,,0.00,4,,288
2013-3-30,62,45,28,35,30,25,92,59,29,30.28,30.15,29.97,10,8,3,7,1,,0.00,1,,164
2013-3-31,60,52,46,47,44,35,100,83,49,29.94,29.84,29.80,10,6,1,15,3,23,0.10,6,Rain,255